sat.trackr.live / text

‹ back to catalog

ONEWEB-0210

NORAD 48787 · 2021-045W

PAYLOAD ACTIVE UNKNOWN

§ Identity

Operator
Country
UK
Launch date
2021-05-28
Launch site
VOSTO
Launch vehicle
Mass (kg)
RCS (m²)

Purposes: comms

External: N2YO · Heavens-Above · Gunter

§ Orbital elements

Epoch: 2026-09-19T22:04:04.927872Z

Period
109.46 min
Inclination
87.8993°
Eccentricity
0.0002635
Mean motion
13.15547576 rev/d
Perigee alt
1,199.8 km
Apogee alt
1,203.8 km
Semi-major
7,579.9 km
B*
3.6620e-4
RAAN
240.3028°
Arg perigee
69.6138°
Mean anomaly
290.5275°
Rev number
25,677

§ Raw data

ONEWEB-02101 48787U 21045W   26262.91950148  .00000151  00000+0  36620-3 0  99972 48787  87.8993 240.3028 0002635  69.6138 290.5275 13.15547576256779

JSON: /api/v1/satellites/48787 · /tle

For live sub-satellite position, see the globe view (requires WebGL).

§ Visibility from observer

Set your observer location to see the next 7 days of passes ≥ 10°. The values pass through the URL so the page stays shareable.

No JS? Fill the form by hand. The geolocation button needs JavaScript.